Time,TemperatureF,DewpointF,PressureIn,WindDirection,WindDirectionDegrees,WindSpeedMPH,WindSpeedGustMPH,Humidity,HourlyPrecipIn,Conditions,Clouds,dailyrainin,SolarRadiationWatts/m^2,SoftwareType,DateUTC
2013-11-06 00:01:00,54.0,44.1,29.32,SE,135,4.0,6.0,69,0.00,,---,0.00,0.00,VWS V14.01,2013-11-06 05:01:00,
2013-11-06 00:03:00,54.0,44.1,29.32,SE,135,5.0,10.0,69,0.00,,---,0.00,0.00,VWS V14.01,2013-11-06 05:03:00,
2013-11-06 00:08:00,54.0,43.7,29.32,SE,135,5.0,8.0,68,0.00,,---,0.00,0.00,VWS V14.01,2013-11-06 05:08:00,
2013-11-06 00:13:00,54.0,43.7,29.32,SE,135,4.0,8.0,68,0.00,,---,0.00,0.00,VWS V14.01,2013-11-06 05:13:00,
2013-11-06 00:18:00,54.0,43.7,29.32,ESE,112,5.0,9.0,68,0.00,,---,0.00,0.00,VWS V14.01,2013-11-06 05:18:00,
2013-11-06 00:23:00,54.0,43.3,29.32,South,180,8.0,10.0,67,0.00,,---,0.00,0.00,VWS V14.01,2013-11-06 05:23:00,
2013-11-06 00:28:00,54.0,42.9,29.32,SE,135,3.0,5.0,66,0.00,,---,0.00,0.00,VWS V14.01,2013-11-06 05:28:00,
2013-11-06 00:33:00,54.0,43.3,29.31,ESE,112,4.0,6.0,67,0.00,,---,0.00,0.00,VWS V14.01,2013-11-06 05:33:00,
2013-11-06 00:38:00,54.0,42.9,29.31,SE,135,3.0,9.0,66,0.00,,---,0.00,0.00,VWS V14.01,2013-11-06 05:38:00,
2013-11-06 00:43:00,55.0,43.9,29.32,South,180,7.0,7.0,66,0.00,,---,0.00,0.00,VWS V14.01,2013-11-06 05:43:00,
2013-11-06 00:48:00,55.0,43.9,29.32,South,180,6.0,8.0,66,0.00,,---,0.00,0.00,VWS V14.01,2013-11-06 05:48:00,
2013-11-06 00:53:00,55.0,43.5,29.31,SSE,157,5.0,9.0,65,0.00,,---,0.00,0.00,VWS V14.01,2013-11-06 05:53:00,
2013-11-06 00:58:00,55.0,43.5,29.31,SE,135,0.0,5.0,65,0.00,,---,0.00,0.00,VWS V14.01,2013-11-06 05:58:00,
2013-11-06 01:03:00,55.0,43.1,29.31,SSW,202,3.0,7.0,64,0.00,,---,0.00,0.00,VWS V14.01,2013-11-06 06:03:00,
2013-11-06 01:08:00,56.0,44.0,29.31,SE,135,6.0,6.0,64,0.00,,---,0.00,0.00,VWS V14.01,2013-11-06 06:08:00,
2013-11-06 01:13:00,56.0,44.0,29.31,SE,135,3.0,7.0,64,0.00,,---,0.00,0.00,VWS V14.01,2013-11-06 06:13:00,
2013-11-06 01:18:00,56.0,44.0,29.31,SE,135,9.0,9.0,64,0.00,,---,0.00,0.00,VWS V14.01,2013-11-06 06:18:00,
2013-11-06 01:23:00,56.0,44.0,29.31,SE,135,4.0,8.0,64,0.00,,---,0.00,0.00,VWS V14.01,2013-11-06 06:23:00,
2013-11-06 01:28:00,56.0,44.0,29.31,SSE,157,8.0,10.0,64,0.00,,---,0.00,0.00,VWS V14.01,2013-11-06 06:28:00,
2013-11-06 01:33:00,56.0,44.0,29.30,SSE,157,3.0,9.0,64,0.00,,---,0.00,0.00,VWS V14.01,2013-11-06 06:33:00,
2013-11-06 01:38:00,56.0,44.0,29.30,South,180,4.0,10.0,64,0.00,,---,0.00,0.00,VWS V14.01,2013-11-06 06:38:00,
2013-11-06 01:43:00,56.0,44.0,29.29,SE,135,9.0,12.0,64,0.00,,---,0.00,0.00,VWS V14.01,2013-11-06 06:43:00,
2013-11-06 01:48:00,56.0,43.6,29.29,SSE,157,7.0,7.0,63,0.00,,---,0.00,0.00,VWS V14.01,2013-11-06 06:48:00,
2013-11-06 01:53:00,56.0,44.0,29.28,SSW,202,5.0,6.0,64,0.00,,---,0.00,0.00,VWS V14.01,2013-11-06 06:53:00,
2013-11-06 01:58:00,56.0,44.0,29.28,South,180,6.0,9.0,64,0.00,,---,0.00,0.00,VWS V14.01,2013-11-06 06:58:00,
2013-11-06 02:03:00,56.0,44.0,29.28,SE,135,10.0,12.0,64,0.00,,---,0.00,0.00,VWS V14.01,2013-11-06 07:03:00,
2013-11-06 02:08:00,56.0,44.0,29.28,South,180,9.0,9.0,64,0.00,,---,0.00,0.00,VWS V14.01,2013-11-06 07:08:00,
2013-11-06 02:13:00,56.0,44.0,29.27,SE,135,6.0,6.0,64,0.00,,---,0.00,0.00,VWS V14.01,2013-11-06 07:13:00,
2013-11-06 02:18:00,56.0,44.8,29.27,ESE,112,3.0,9.0,66,0.00,,---,0.00,0.00,VWS V14.01,2013-11-06 07:18:00,
2013-11-06 02:23:00,56.0,44.8,29.28,SE,135,4.0,7.0,66,0.00,,---,0.00,0.00,VWS V14.01,2013-11-06 07:23:00,
2013-11-06 02:28:00,56.0,44.4,29.28,East,90,6.0,10.0,65,0.00,,---,0.00,0.00,VWS V14.01,2013-11-06 07:28:00,
2013-11-06 02:33:00,56.0,44.4,29.28,SSW,202,7.0,11.0,65,0.00,,---,0.00,0.00,VWS V14.01,2013-11-06 07:33:00,
2013-11-06 02:38:00,56.0,44.8,29.28,South,180,3.0,5.0,66,0.00,,---,0.00,0.00,VWS V14.01,2013-11-06 07:38:00,
2013-11-06 02:43:00,56.0,44.8,29.27,SE,135,1.0,9.0,66,0.00,,---,0.00,0.00,VWS V14.01,2013-11-06 07:43:00,
2013-11-06 02:48:00,56.0,44.8,29.27,South,180,5.0,6.0,66,0.00,,---,0.00,0.00,VWS V14.01,2013-11-06 07:48:00,
2013-11-06 02:53:00,56.0,44.8,29.26,SE,135,5.0,10.0,66,0.00,,---,0.00,0.00,VWS V14.01,2013-11-06 07:53:00,
2013-11-06 02:58:00,56.0,44.8,29.26,SSE,157,10.0,10.0,66,0.00,,---,0.00,0.00,VWS V14.01,2013-11-06 07:58:00,
2013-11-06 03:03:00,56.0,44.8,29.25,South,180,5.0,9.0,66,0.00,,---,0.00,0.00,VWS V14.01,2013-11-06 08:03:00,
2013-11-06 03:08:00,57.0,45.8,29.25,ESE,112,9.0,10.0,66,0.00,,---,0.00,0.00,VWS V14.01,2013-11-06 08:08:00,
2013-11-06 03:13:00,57.0,45.8,29.25,South,180,6.0,6.0,66,0.00,,---,0.00,0.00,VWS V14.01,2013-11-06 08:13:00,
2013-11-06 03:18:00,57.0,46.2,29.25,SSE,157,4.0,7.0,67,0.00,,---,0.00,0.00,VWS V14.01,2013-11-06 08:18:00,
2013-11-06 03:23:00,57.0,46.2,29.25,SSW,202,1.0,10.0,67,0.00,,---,0.00,0.00,VWS V14.01,2013-11-06 08:23:00,
2013-11-06 03:28:00,57.0,46.2,29.25,SE,135,2.0,9.0,67,0.00,,---,0.00,0.00,VWS V14.01,2013-11-06 08:28:00,
2013-11-06 03:33:00,57.0,46.2,29.24,South,180,3.0,10.0,67,0.00,,---,0.00,0.00,VWS V14.01,2013-11-06 08:33:00,
2013-11-06 03:38:00,57.0,46.6,29.24,South,180,7.0,7.0,68,0.00,,---,0.00,0.00,VWS V14.01,2013-11-06 08:38:00,
2013-11-06 03:43:00,57.0,46.6,29.24,South,180,2.0,9.0,68,0.00,,---,0.00,0.00,VWS V14.01,2013-11-06 08:43:00,
2013-11-06 03:48:00,57.0,46.6,29.24,SSE,157,5.0,7.0,68,0.00,,---,0.00,0.00,VWS V14.01,2013-11-06 08:48:00,
2013-11-06 03:53:00,58.0,47.5,29.23,SSE,157,10.0,12.0,68,0.00,,---,0.00,0.00,VWS V14.01,2013-11-06 08:53:00,
2013-11-06 03:58:00,58.0,47.5,29.23,South,180,6.0,9.0,68,0.00,,---,0.00,0.00,VWS V14.01,2013-11-06 08:58:00,
2013-11-06 04:03:00,58.0,47.5,29.22,SE,135,6.0,14.0,68,0.00,,---,0.00,0.00,VWS V14.01,2013-11-06 09:03:00,
2013-11-06 04:08:00,58.0,47.9,29.22,SSW,202,4.0,10.0,69,0.00,,---,0.00,0.00,VWS V14.01,2013-11-06 09:08:00,
2013-11-06 04:13:00,58.0,47.9,29.22,South,180,6.0,10.0,69,0.00,,---,0.00,0.00,VWS V14.01,2013-11-06 09:13:00,
2013-11-06 04:18:00,58.0,48.3,29.22,SSE,157,5.0,11.0,70,0.00,,---,0.00,0.00,VWS V14.01,2013-11-06 09:18:00,
2013-11-06 04:23:00,58.0,48.3,29.22,South,180,3.0,12.0,70,0.00,,---,0.00,0.00,VWS V14.01,2013-11-06 09:23:00,
2013-11-06 04:28:00,58.0,48.3,29.22,SSE,157,8.0,8.0,70,0.00,,---,0.00,0.00,VWS V14.01,2013-11-06 09:28:00,
2013-11-06 04:33:00,58.0,48.7,29.22,SSW,202,5.0,5.0,71,0.00,,---,0.00,0.00,VWS V14.01,2013-11-06 09:33:00,
2013-11-06 04:38:00,58.0,49.0,29.22,SSW,202,5.0,10.0,72,0.00,,---,0.00,0.00,VWS V14.01,2013-11-06 09:38:00,
2013-11-06 04:43:00,58.0,49.4,29.22,SSE,157,6.0,8.0,73,0.00,,---,0.00,0.00,VWS V14.01,2013-11-06 09:43:00,
2013-11-06 04:48:00,58.0,49.4,29.22,South,180,10.0,14.0,73,0.00,,---,0.00,0.00,VWS V14.01,2013-11-06 09:48:00,
2013-11-06 04:53:00,58.0,49.4,29.22,SSE,157,8.0,14.0,73,0.00,,---,0.00,0.00,VWS V14.01,2013-11-06 09:53:00,
2013-11-06 04:58:00,58.0,49.8,29.22,SE,135,4.0,8.0,74,0.00,,---,0.00,0.00,VWS V14.01,2013-11-06 09:58:00,
2013-11-06 05:03:00,58.0,49.8,29.21,SSE,157,12.0,12.0,74,0.00,,---,0.00,0.00,VWS V14.01,2013-11-06 10:03:00,
2013-11-06 05:08:00,58.0,49.4,29.21,SSE,157,6.0,9.0,73,0.00,,---,0.00,0.00,VWS V14.01,2013-11-06 10:08:00,
2013-11-06 05:13:00,58.0,49.8,29.21,SSW,202,7.0,17.0,74,0.00,,---,0.00,0.00,VWS V14.01,2013-11-06 10:13:00,
2013-11-06 05:18:00,58.0,50.1,29.21,SSE,157,9.0,11.0,75,0.00,,---,0.00,0.00,VWS V14.01,2013-11-06 10:18:00,
2013-11-06 05:23:00,58.0,50.5,29.21,East,90,4.0,12.0,76,0.00,,---,0.00,0.00,VWS V14.01,2013-11-06 10:23:00,
2013-11-06 05:28:00,57.0,50.2,29.21,South,180,7.0,13.0,78,0.00,,---,0.00,0.00,VWS V14.01,2013-11-06 10:28:00,
2013-11-06 05:33:00,57.0,50.2,29.21,SSW,202,6.0,11.0,78,0.00,,---,0.00,0.00,VWS V14.01,2013-11-06 10:33:00,
2013-11-06 05:38:00,57.0,50.9,29.21,South,180,4.0,8.0,80,0.00,,---,0.00,0.00,VWS V14.01,2013-11-06 10:38:00,
2013-11-06 05:43:00,56.0,50.3,29.21,SE,135,13.0,14.0,81,0.00,,---,0.00,0.00,VWS V14.01,2013-11-06 10:43:00,
2013-11-06 05:48:00,56.0,50.3,29.21,South,180,5.0,9.0,81,0.00,,---,0.00,0.00,VWS V14.01,2013-11-06 10:48:00,
2013-11-06 05:53:00,56.0,49.9,29.21,SSE,157,5.0,5.0,80,0.00,,---,0.00,0.00,VWS V14.01,2013-11-06 10:53:00,
2013-11-06 05:58:00,56.0,49.6,29.21,SSE,157,1.0,6.0,79,0.00,,---,0.00,0.00,VWS V14.01,2013-11-06 10:58:00,
2013-11-06 06:03:00,57.0,50.2,29.21,SSE,157,5.0,5.0,78,0.00,,---,0.00,0.00,VWS V14.01,2013-11-06 11:03:00,
2013-11-06 06:08:00,57.0,50.2,29.21,SSE,157,4.0,7.0,78,0.00,,---,0.00,0.00,VWS V14.01,2013-11-06 11:08:00,
2013-11-06 06:13:00,57.0,49.5,29.20,SE,135,9.0,12.0,76,0.00,,---,0.00,0.00,VWS V14.01,2013-11-06 11:13:00,
2013-11-06 06:18:00,57.0,49.5,29.20,SE,135,3.0,9.0,76,0.00,,---,0.00,0.00,VWS V14.01,2013-11-06 11:18:00,
2013-11-06 06:23:00,57.0,49.2,29.20,South,180,5.0,7.0,75,0.00,,---,0.00,0.00,VWS V14.01,2013-11-06 11:23:00,
2013-11-06 06:28:00,57.0,48.8,29.20,South,180,8.0,8.0,74,0.00,,---,0.00,0.00,VWS V14.01,2013-11-06 11:28:00,
2013-11-06 06:33:00,57.0,48.8,29.20,South,180,6.0,8.0,74,0.00,,---,0.00,0.00,VWS V14.01,2013-11-06 11:33:00,
2013-11-06 06:38:00,57.0,48.4,29.20,SE,135,5.0,14.0,73,0.00,,---,0.00,0.00,VWS V14.01,2013-11-06 11:38:00,
2013-11-06 06:43:00,57.0,48.4,29.19,South,180,4.0,10.0,73,0.00,,---,0.00,0.00,VWS V14.01,2013-11-06 11:43:00,
2013-11-06 06:48:00,57.0,48.4,29.19,SSE,157,5.0,11.0,73,0.00,,---,0.00,0.00,VWS V14.01,2013-11-06 11:48:00,
2013-11-06 06:53:00,57.0,47.7,29.19,South,180,6.0,16.0,71,0.00,,---,0.00,0.00,VWS V14.01,2013-11-06 11:53:00,
2013-11-06 06:58:00,57.0,47.7,29.19,SW,225,5.0,12.0,71,0.00,,---,0.00,0.00,VWS V14.01,2013-11-06 11:58:00,
2013-11-06 07:03:00,58.0,48.7,29.20,SE,135,11.0,11.0,71,0.00,,---,0.00,0.00,VWS V14.01,2013-11-06 12:03:00,
2013-11-06 07:08:00,58.0,48.3,29.20,SSE,157,12.0,14.0,70,0.00,,---,0.00,0.00,VWS V14.01,2013-11-06 12:08:00,
2013-11-06 07:13:00,58.0,48.3,29.20,SSW,202,6.0,8.0,70,0.00,,---,0.00,0.00,VWS V14.01,2013-11-06 12:13:00,
2013-11-06 07:18:00,58.0,48.3,29.20,South,180,12.0,18.0,70,0.00,,---,0.00,0.00,VWS V14.01,2013-11-06 12:18:00,
2013-11-06 07:23:00,58.0,48.3,29.19,SSE,157,7.0,7.0,70,0.00,,---,0.00,0.00,VWS V14.01,2013-11-06 12:23:00,
2013-11-06 07:28:00,58.0,48.7,29.19,SE,135,3.0,8.0,71,0.00,,---,0.00,0.00,VWS V14.01,2013-11-06 12:28:00,
2013-11-06 07:33:00,58.0,48.3,29.19,SE,135,3.0,10.0,70,0.00,,---,0.00,0.00,VWS V14.01,2013-11-06 12:33:00,
2013-11-06 07:38:00,58.0,47.9,29.19,SE,135,4.0,8.0,69,0.00,,---,0.00,0.00,VWS V14.01,2013-11-06 12:38:00,
2013-11-06 07:43:00,58.0,47.9,29.19,SSE,157,7.0,7.0,69,0.00,,---,0.00,0.00,VWS V14.01,2013-11-06 12:43:00,
2013-11-06 07:48:00,58.0,47.9,29.19,SSW,202,8.0,13.0,69,0.00,,---,0.00,0.00,VWS V14.01,2013-11-06 12:48:00,
2013-11-06 07:53:00,58.0,47.9,29.18,SSW,202,2.0,8.0,69,0.00,,---,0.00,0.00,VWS V14.01,2013-11-06 12:53:00,
2013-11-06 07:58:00,57.0,47.7,29.18,SSE,157,9.0,10.0,71,0.00,,---,0.00,0.00,VWS V14.01,2013-11-06 12:58:00,
2013-11-06 08:03:00,57.0,48.8,29.19,SSW,202,7.0,11.0,74,0.00,,---,0.00,0.00,VWS V14.01,2013-11-06 13:03:00,
2013-11-06 08:08:00,56.0,47.8,29.19,South,180,3.0,9.0,74,0.00,,---,0.00,0.00,VWS V14.01,2013-11-06 13:08:00,
2013-11-06 08:13:00,57.0,48.4,29.19,SSE,157,8.0,14.0,73,0.00,,---,0.00,0.00,VWS V14.01,2013-11-06 13:13:00,
2013-11-06 08:18:00,57.0,47.7,29.19,SSE,157,2.0,13.0,71,0.00,,---,0.00,0.00,VWS V14.01,2013-11-06 13:18:00,
2013-11-06 08:23:00,57.0,47.7,29.18,SE,135,7.0,9.0,71,0.00,,---,0.00,0.00,VWS V14.01,2013-11-06 13:23:00,
2013-11-06 08:28:00,57.0,46.9,29.18,SW,225,10.0,14.0,69,0.00,,---,0.00,0.00,VWS V14.01,2013-11-06 13:28:00,
2013-11-06 08:33:00,58.0,47.9,29.19,SSE,157,11.0,14.0,69,0.00,,---,0.00,0.00,VWS V14.01,2013-11-06 13:33:00,
2013-11-06 08:38:00,58.0,47.9,29.19,SSE,157,4.0,7.0,69,0.00,,---,0.00,0.00,VWS V14.01,2013-11-06 13:38:00,
2013-11-06 08:43:00,58.0,47.9,29.19,South,180,3.0,3.0,69,0.00,,---,0.00,0.00,VWS V14.01,2013-11-06 13:43:00,
2013-11-06 08:48:00,58.0,47.9,29.19,SW,225,6.0,10.0,69,0.00,,---,0.00,0.00,VWS V14.01,2013-11-06 13:48:00,
2013-11-06 08:53:00,57.0,48.4,29.19,South,180,3.0,9.0,73,0.00,,---,0.00,0.00,VWS V14.01,2013-11-06 13:53:00,
2013-11-06 08:58:00,56.0,49.2,29.19,SSE,157,3.0,7.0,78,0.01,,---,0.01,0.00,VWS V14.01,2013-11-06 13:58:00,
2013-11-06 09:03:00,55.0,49.6,29.20,SE,135,5.0,7.0,82,0.01,,---,0.01,0.00,VWS V14.01,2013-11-06 14:03:00,
2013-11-06 09:08:00,55.0,50.6,29.20,SW,225,3.0,7.0,85,0.02,,---,0.02,0.00,VWS V14.01,2013-11-06 14:08:00,
2013-11-06 09:13:00,54.0,50.5,29.21,SSW,202,3.0,8.0,88,0.03,,---,0.03,0.00,VWS V14.01,2013-11-06 14:13:00,
2013-11-06 09:18:00,54.0,51.1,29.21,South,180,0.0,5.0,90,0.03,,---,0.03,0.00,VWS V14.01,2013-11-06 14:18:00,
2013-11-06 09:23:00,54.0,51.7,29.21,SSW,202,5.0,7.0,92,0.04,,---,0.04,0.00,VWS V14.01,2013-11-06 14:23:00,
2013-11-06 09:28:00,53.0,50.7,29.21,South,180,3.0,7.0,92,0.04,,---,0.04,0.00,VWS V14.01,2013-11-06 14:28:00,
2013-11-06 09:33:00,53.0,50.7,29.21,SW,225,2.0,5.0,92,0.04,,---,0.04,0.00,VWS V14.01,2013-11-06 14:33:00,
2013-11-06 09:38:00,54.0,51.7,29.21,SE,135,2.0,8.0,92,0.04,,---,0.04,0.00,VWS V14.01,2013-11-06 14:38:00,
2013-11-06 09:43:00,54.0,51.4,29.21,SSE,157,8.0,8.0,91,0.05,,---,0.05,0.00,VWS V14.01,2013-11-06 14:43:00,
2013-11-06 09:48:00,54.0,51.1,29.21,South,180,6.0,10.0,90,0.05,,---,0.05,0.00,VWS V14.01,2013-11-06 14:48:00,
2013-11-06 09:53:00,54.0,51.1,29.21,South,180,6.0,11.0,90,0.05,,---,0.05,0.00,VWS V14.01,2013-11-06 14:53:00,
2013-11-06 09:58:00,54.0,51.1,29.21,SE,135,5.0,6.0,90,0.05,,---,0.05,0.00,VWS V14.01,2013-11-06 14:58:00,
2013-11-06 10:03:00,54.0,51.1,29.20,South,180,3.0,11.0,90,0.04,,---,0.05,0.00,VWS V14.01,2013-11-06 15:03:00,
2013-11-06 10:08:00,54.0,51.4,29.20,South,180,5.0,10.0,91,0.03,,---,0.05,0.00,VWS V14.01,2013-11-06 15:08:00,
2013-11-06 10:13:00,54.0,52.0,29.20,SSW,202,10.0,14.0,93,0.03,,---,0.05,0.00,VWS V14.01,2013-11-06 15:13:00,
2013-11-06 10:18:00,54.0,52.9,29.20,SSE,157,10.0,13.0,96,0.02,,---,0.05,0.00,VWS V14.01,2013-11-06 15:18:00,
2013-11-06 10:23:00,53.0,52.2,29.20,SW,225,7.0,17.0,97,0.03,,---,0.06,0.00,VWS V14.01,2013-11-06 15:23:00,
2013-11-06 10:28:00,53.0,52.7,29.20,WSW,247,9.0,9.0,99,0.02,,---,0.07,0.00,VWS V14.01,2013-11-06 15:28:00,
2013-11-06 10:33:00,53.0,53.0,29.20,South,180,6.0,12.0,100,0.03,,---,0.07,0.00,VWS V14.01,2013-11-06 15:33:00,
2013-11-06 10:38:00,53.0,53.0,29.20,SSE,157,9.0,12.0,100,0.04,,---,0.08,0.00,VWS V14.01,2013-11-06 15:38:00,
2013-11-06 10:43:00,53.0,53.0,29.20,SE,135,2.0,2.0,100,0.03,,---,0.08,0.00,VWS V14.01,2013-11-06 15:43:00,
2013-11-06 10:48:00,53.0,53.0,29.20,SW,225,1.0,7.0,100,0.04,,---,0.09,0.00,VWS V14.01,2013-11-06 15:48:00,
2013-11-06 10:53:00,52.0,52.0,29.20,South,180,3.0,4.0,100,0.04,,---,0.09,0.00,VWS V14.01,2013-11-06 15:53:00,
2013-11-06 10:58:00,52.0,52.0,29.20,South,180,11.0,12.0,100,0.05,,---,0.10,0.00,VWS V14.01,2013-11-06 15:58:00,
2013-11-06 11:03:00,52.0,52.0,29.20,South,180,8.0,11.0,100,0.05,,---,0.10,0.00,VWS V14.01,2013-11-06 16:03:00,
2013-11-06 11:08:00,52.0,52.0,29.20,South,180,6.0,12.0,100,0.05,,---,0.10,0.00,VWS V14.01,2013-11-06 16:08:00,
2013-11-06 11:13:00,52.0,52.0,29.20,South,180,7.0,13.0,100,0.06,,---,0.11,0.00,VWS V14.01,2013-11-06 16:13:00,
2013-11-06 11:18:00,52.0,52.0,29.20,SSE,157,5.0,7.0,100,0.06,,---,0.11,0.00,VWS V14.01,2013-11-06 16:18:00,
2013-11-06 11:23:00,53.0,53.0,29.19,SSW,202,9.0,11.0,100,0.05,,---,0.11,0.00,VWS V14.01,2013-11-06 16:23:00,
2013-11-06 11:28:00,52.0,52.0,29.19,WSW,247,8.0,10.0,100,0.05,,---,0.11,0.00,VWS V14.01,2013-11-06 16:28:00,
2013-11-06 11:33:00,52.0,52.0,29.19,SSW,202,4.0,15.0,100,0.04,,---,0.11,0.00,VWS V14.01,2013-11-06 16:33:00,
2013-11-06 11:38:00,52.0,52.0,29.19,SW,225,3.0,16.0,100,0.05,,---,0.12,0.00,VWS V14.01,2013-11-06 16:38:00,
2013-11-06 11:43:00,52.0,52.0,29.19,SSE,157,8.0,9.0,100,0.04,,---,0.12,0.00,VWS V14.01,2013-11-06 16:43:00,
2013-11-06 11:48:00,52.0,52.0,29.19,SE,135,6.0,13.0,100,0.04,,---,0.12,0.00,VWS V14.01,2013-11-06 16:48:00,
2013-11-06 11:53:00,52.0,52.0,29.18,SE,135,3.0,5.0,100,0.03,,---,0.12,0.00,VWS V14.01,2013-11-06 16:53:00,
2013-11-06 11:58:00,52.0,52.0,29.18,South,180,5.0,7.0,100,0.03,,---,0.12,0.00,VWS V14.01,2013-11-06 16:58:00,
2013-11-06 12:03:00,52.0,52.0,29.19,SE,135,6.0,13.0,100,0.02,,---,0.12,0.00,VWS V14.01,2013-11-06 17:03:00,
2013-11-06 12:08:00,52.0,52.0,29.19,South,180,4.0,10.0,100,0.02,,---,0.12,0.00,VWS V14.01,2013-11-06 17:08:00,
2013-11-06 12:13:00,52.0,52.0,29.18,ESE,112,12.0,13.0,100,0.01,,---,0.12,0.00,VWS V14.01,2013-11-06 17:13:00,
2013-11-06 12:18:00,52.0,52.0,29.18,SSE,157,2.0,9.0,100,0.01,,---,0.12,0.00,VWS V14.01,2013-11-06 17:18:00,
2013-11-06 12:23:00,52.0,52.0,29.17,SSE,157,3.0,12.0,100,0.02,,---,0.13,0.00,VWS V14.01,2013-11-06 17:23:00,
2013-11-06 12:28:00,52.0,52.0,29.17,SW,225,3.0,13.0,100,0.02,,---,0.13,0.00,VWS V14.01,2013-11-06 17:28:00,
2013-11-06 12:33:00,52.0,52.0,29.17,ESE,112,4.0,12.0,100,0.02,,---,0.13,0.00,VWS V14.01,2013-11-06 17:33:00,
2013-11-06 12:38:00,52.0,52.0,29.17,SE,135,7.0,9.0,100,0.01,,---,0.13,0.00,VWS V14.01,2013-11-06 17:38:00,
2013-11-06 12:43:00,53.0,53.0,29.16,WSW,247,6.0,7.0,100,0.01,,---,0.13,0.00,VWS V14.01,2013-11-06 17:43:00,
2013-11-06 12:48:00,53.0,53.0,29.16,South,180,3.0,14.0,100,0.01,,---,0.13,0.00,VWS V14.01,2013-11-06 17:48:00,
2013-11-06 12:53:00,53.0,53.0,29.16,South,180,7.0,10.0,100,0.01,,---,0.13,0.00,VWS V14.01,2013-11-06 17:53:00,
2013-11-06 12:58:00,53.0,53.0,29.16,SSW,202,4.0,7.0,100,0.02,,---,0.14,0.00,VWS V14.01,2013-11-06 17:58:00,
2013-11-06 13:03:00,53.0,53.0,29.15,SE,135,9.0,12.0,100,0.02,,---,0.14,0.00,VWS V14.01,2013-11-06 18:03:00,
2013-11-06 13:08:00,53.0,53.0,29.15,SW,225,8.0,15.0,100,0.02,,---,0.14,0.00,VWS V14.01,2013-11-06 18:08:00,
2013-11-06 13:13:00,53.0,53.0,29.14,South,180,9.0,9.0,100,0.02,,---,0.14,0.00,VWS V14.01,2013-11-06 18:13:00,
2013-11-06 13:18:00,53.0,53.0,29.14,South,180,3.0,9.0,100,0.02,,---,0.14,0.00,VWS V14.01,2013-11-06 18:18:00,
2013-11-06 13:23:00,54.0,54.0,29.12,South,180,3.0,3.0,100,0.02,,---,0.15,0.00,VWS V14.01,2013-11-06 18:23:00,
2013-11-06 13:28:00,54.0,54.0,29.12,South,180,10.0,11.0,100,0.02,,---,0.15,0.00,VWS V14.01,2013-11-06 18:28:00,
2013-11-06 13:33:00,54.0,54.0,29.12,South,180,8.0,12.0,100,0.02,,---,0.15,0.00,VWS V14.01,2013-11-06 18:33:00,
2013-11-06 13:38:00,54.0,54.0,29.12,SW,225,5.0,9.0,100,0.02,,---,0.15,0.00,VWS V14.01,2013-11-06 18:38:00,
2013-11-06 13:43:00,54.0,54.0,29.11,South,180,11.0,12.0,100,0.02,,---,0.15,0.00,VWS V14.01,2013-11-06 18:43:00,
2013-11-06 13:48:00,54.0,54.0,29.11,SSE,157,9.0,9.0,100,0.02,,---,0.15,0.00,VWS V14.01,2013-11-06 18:48:00,
2013-11-06 13:53:00,55.0,55.0,29.12,SW,225,5.0,9.0,100,0.02,,---,0.15,0.00,VWS V14.01,2013-11-06 18:53:00,
2013-11-06 13:58:00,55.0,55.0,29.12,South,180,4.0,6.0,100,0.01,,---,0.15,0.00,VWS V14.01,2013-11-06 18:58:00,
2013-11-06 14:03:00,55.0,55.0,29.14,SSW,202,4.0,9.0,100,0.01,,---,0.15,0.00,VWS V14.01,2013-11-06 19:03:00,
2013-11-06 14:08:00,55.0,55.0,29.14,ESE,112,0.0,9.0,100,0.01,,---,0.15,0.00,VWS V14.01,2013-11-06 19:08:00,
2013-11-06 14:13:00,55.0,55.0,29.14,South,180,3.0,4.0,100,0.01,,---,0.15,0.00,VWS V14.01,2013-11-06 19:13:00,
2013-11-06 14:18:00,55.0,55.0,29.14,ESE,112,0.0,15.0,100,0.01,,---,0.15,0.00,VWS V14.01,2013-11-06 19:18:00,
2013-11-06 14:23:00,55.0,55.0,29.14,WSW,247,10.0,10.0,100,0.00,,---,0.15,0.00,VWS V14.01,2013-11-06 19:23:00,
2013-11-06 14:28:00,55.0,55.0,29.14,NW,315,1.0,9.0,100,0.00,,---,0.15,0.00,VWS V14.01,2013-11-06 19:28:00,
2013-11-06 14:33:00,55.0,55.0,29.15,North,360,0.0,8.0,100,0.00,,---,0.15,0.00,VWS V14.01,2013-11-06 19:33:00,
2013-11-06 14:38:00,55.0,55.0,29.15,SW,225,3.0,10.0,100,0.00,,---,0.15,0.00,VWS V14.01,2013-11-06 19:38:00,
2013-11-06 14:43:00,55.0,55.0,29.15,WNW,292,6.0,10.0,100,0.00,,---,0.15,0.00,VWS V14.01,2013-11-06 19:43:00,
2013-11-06 14:48:00,55.0,55.0,29.15,West,270,1.0,10.0,100,0.00,,---,0.15,0.00,VWS V14.01,2013-11-06 19:48:00,
2013-11-06 14:53:00,55.0,55.0,29.15,SSE,157,3.0,7.0,100,0.00,,---,0.15,0.00,VWS V14.01,2013-11-06 19:53:00,
2013-11-06 14:58:00,55.0,55.0,29.15,SSW,202,1.0,12.0,100,0.00,,---,0.15,0.00,VWS V14.01,2013-11-06 19:58:00,
2013-11-06 15:03:00,55.0,55.0,29.15,SW,225,4.0,10.0,100,0.00,,---,0.15,0.00,VWS V14.01,2013-11-06 20:03:00,
2013-11-06 15:08:00,55.0,55.0,29.15,SE,135,0.0,8.0,100,0.00,,---,0.15,0.00,VWS V14.01,2013-11-06 20:08:00,
2013-11-06 15:13:00,55.0,55.0,29.15,South,180,6.0,6.0,100,0.00,,---,0.15,0.00,VWS V14.01,2013-11-06 20:13:00,
2013-11-06 15:18:00,55.0,55.0,29.15,SE,135,1.0,10.0,100,0.00,,---,0.15,0.00,VWS V14.01,2013-11-06 20:18:00,
2013-11-06 15:23:00,55.0,55.0,29.15,South,180,5.0,12.0,100,0.00,,---,0.15,0.00,VWS V14.01,2013-11-06 20:23:00,
2013-11-06 15:28:00,55.0,55.0,29.15,SW,225,2.0,10.0,100,0.00,,---,0.15,0.00,VWS V14.01,2013-11-06 20:28:00,
2013-11-06 15:33:00,55.0,55.0,29.14,SSE,157,2.0,7.0,100,0.00,,---,0.15,0.00,VWS V14.01,2013-11-06 20:33:00,
2013-11-06 15:38:00,55.0,55.0,29.14,South,180,3.0,3.0,100,0.00,,---,0.15,0.00,VWS V14.01,2013-11-06 20:38:00,
2013-11-06 15:43:00,55.0,55.0,29.15,SE,135,4.0,11.0,100,0.00,,---,0.15,0.00,VWS V14.01,2013-11-06 20:43:00,
2013-11-06 15:48:00,55.0,55.0,29.15,South,180,7.0,10.0,100,0.00,,---,0.15,0.00,VWS V14.01,2013-11-06 20:48:00,
2013-11-06 15:53:00,55.0,55.0,29.15,NNW,337,0.0,11.0,100,0.00,,---,0.15,0.00,VWS V14.01,2013-11-06 20:53:00,
2013-11-06 15:58:00,55.0,55.0,29.15,West,270,3.0,9.0,100,0.00,,---,0.15,0.00,VWS V14.01,2013-11-06 20:58:00,
2013-11-06 16:03:00,55.0,55.0,29.16,SW,225,4.0,10.0,100,0.00,,---,0.15,0.00,VWS V14.01,2013-11-06 21:03:00,
2013-11-06 16:08:00,55.0,55.0,29.16,South,180,2.0,9.0,100,0.00,,---,0.15,0.00,VWS V14.01,2013-11-06 21:08:00,
2013-11-06 16:13:00,55.0,55.0,29.15,South,180,5.0,8.0,100,0.00,,---,0.15,0.00,VWS V14.01,2013-11-06 21:13:00,
2013-11-06 16:18:00,55.0,55.0,29.15,SE,135,0.0,3.0,100,0.00,,---,0.15,0.00,VWS V14.01,2013-11-06 21:18:00,
2013-11-06 16:23:00,55.0,55.0,29.15,SSE,157,5.0,5.0,100,0.00,,---,0.15,0.00,VWS V14.01,2013-11-06 21:23:00,
2013-11-06 16:28:00,55.0,55.0,29.15,South,180,6.0,8.0,100,0.00,,---,0.15,0.00,VWS V14.01,2013-11-06 21:28:00,
2013-11-06 16:33:00,55.0,55.0,29.14,South,180,7.0,9.0,100,0.00,,---,0.15,0.00,VWS V14.01,2013-11-06 21:33:00,
2013-11-06 16:38:00,55.0,55.0,29.14,South,180,3.0,6.0,100,0.00,,---,0.15,0.00,VWS V14.01,2013-11-06 21:38:00,
2013-11-06 16:43:00,55.0,55.0,29.15,ENE,67,0.0,4.0,100,0.00,,---,0.15,0.00,VWS V14.01,2013-11-06 21:43:00,
2013-11-06 16:48:00,55.0,55.0,29.15,SW,225,3.0,8.0,100,0.00,,---,0.15,0.00,VWS V14.01,2013-11-06 21:48:00,
2013-11-06 16:53:00,55.0,55.0,29.15,NW,315,4.0,9.0,100,0.00,,---,0.15,0.00,VWS V14.01,2013-11-06 21:53:00,
2013-11-06 16:58:00,55.0,55.0,29.15,West,270,0.0,4.0,100,0.00,,---,0.15,0.00,VWS V14.01,2013-11-06 21:58:00,
2013-11-06 17:03:00,55.0,55.0,29.15,NE,45,1.0,1.0,100,0.00,,---,0.15,0.00,VWS V14.01,2013-11-06 22:03:00,
2013-11-06 17:08:00,54.0,54.0,29.15,SSW,202,3.0,8.0,100,0.00,,---,0.15,0.00,VWS V14.01,2013-11-06 22:08:00,
2013-11-06 17:13:00,54.0,54.0,29.15,WSW,247,0.0,6.0,100,0.00,,---,0.15,0.00,VWS V14.01,2013-11-06 22:13:00,
2013-11-06 17:18:00,54.0,54.0,29.15,SW,225,3.0,4.0,100,0.00,,---,0.15,0.00,VWS V14.01,2013-11-06 22:18:00,
2013-11-06 17:23:00,54.0,54.0,29.15,WNW,292,1.0,7.0,100,0.00,,---,0.15,0.00,VWS V14.01,2013-11-06 22:23:00,
2013-11-06 17:28:00,54.0,54.0,29.15,South,180,4.0,6.0,100,0.00,,---,0.15,0.00,VWS V14.01,2013-11-06 22:28:00,
2013-11-06 17:33:00,54.0,54.0,29.16,East,90,3.0,4.0,100,0.00,,---,0.15,0.00,VWS V14.01,2013-11-06 22:33:00,
2013-11-06 17:38:00,53.0,53.0,29.16,WNW,292,9.0,10.0,100,0.00,,---,0.15,0.00,VWS V14.01,2013-11-06 22:38:00,
2013-11-06 17:43:00,52.0,52.0,29.18,NW,315,3.0,5.0,100,0.00,,---,0.15,0.00,VWS V14.01,2013-11-06 22:43:00,
2013-11-06 17:48:00,51.0,51.0,29.18,West,270,0.0,3.0,100,0.00,,---,0.15,0.00,VWS V14.01,2013-11-06 22:48:00,
2013-11-06 17:53:00,51.0,51.0,29.18,NW,315,4.0,4.0,100,0.00,,---,0.15,0.00,VWS V14.01,2013-11-06 22:53:00,
2013-11-06 17:58:00,50.0,50.0,29.18,NW,315,8.0,9.0,100,0.00,,---,0.15,0.00,VWS V14.01,2013-11-06 22:58:00,
2013-11-06 18:03:00,49.0,49.0,29.21,NW,315,2.0,5.0,100,0.00,,---,0.15,0.00,VWS V14.01,2013-11-06 23:03:00,
2013-11-06 18:08:00,48.0,48.0,29.21,SW,225,6.0,6.0,100,0.00,,---,0.15,0.00,VWS V14.01,2013-11-06 23:08:00,
2013-11-06 18:13:00,47.0,47.0,29.21,West,270,5.0,5.0,100,0.00,,---,0.15,0.00,VWS V14.01,2013-11-06 23:13:00,
2013-11-06 18:18:00,47.0,47.0,29.21,NW,315,0.0,6.0,100,0.00,,---,0.15,0.00,VWS V14.01,2013-11-06 23:18:00,
2013-11-06 18:23:00,46.0,46.0,29.24,West,270,1.0,6.0,100,0.00,,---,0.15,0.00,VWS V14.01,2013-11-06 23:23:00,
2013-11-06 18:28:00,46.0,46.0,29.24,West,270,4.0,11.0,100,0.00,,---,0.15,0.00,VWS V14.01,2013-11-06 23:28:00,
2013-11-06 18:33:00,45.0,45.0,29.24,NNW,337,4.0,6.0,100,0.00,,---,0.15,0.00,VWS V14.01,2013-11-06 23:33:00,
2013-11-06 18:38:00,45.0,45.0,29.24,WNW,292,7.0,13.0,100,0.00,,---,0.15,0.00,VWS V14.01,2013-11-06 23:38:00,
2013-11-06 18:43:00,44.0,44.0,29.25,NW,315,4.0,9.0,100,0.00,,---,0.15,0.00,VWS V14.01,2013-11-06 23:43:00,
2013-11-06 18:48:00,44.0,44.0,29.25,SSW,202,6.0,6.0,100,0.00,,---,0.15,0.00,VWS V14.01,2013-11-06 23:48:00,
2013-11-06 18:53:00,44.0,44.0,29.26,NW,315,1.0,4.0,100,0.00,,---,0.15,0.00,VWS V14.01,2013-11-06 23:53:00,
2013-11-06 18:58:00,44.0,44.0,29.26,NW,315,2.0,6.0,100,0.00,,---,0.15,0.00,VWS V14.01,2013-11-06 23:58:00,
2013-11-06 19:03:00,44.0,44.0,29.27,NW,315,0.0,9.0,100,0.00,,---,0.15,0.00,VWS V14.01,2013-11-07 00:03:00,
2013-11-06 19:08:00,43.0,43.0,29.27,West,270,0.0,0.0,100,0.01,,---,0.16,0.00,VWS V14.01,2013-11-07 00:08:00,
2013-11-06 19:13:00,43.0,43.0,29.28,West,270,5.0,7.0,100,0.01,,---,0.16,0.00,VWS V14.01,2013-11-07 00:13:00,
2013-11-06 19:18:00,43.0,43.0,29.28,NW,315,6.0,10.0,100,0.02,,---,0.17,0.00,VWS V14.01,2013-11-07 00:18:00,
2013-11-06 19:23:00,43.0,43.0,29.28,West,270,0.0,4.0,100,0.02,,---,0.18,0.00,VWS V14.01,2013-11-07 00:23:00,
2013-11-06 19:28:00,43.0,43.0,29.28,SW,225,3.0,7.0,100,0.03,,---,0.18,0.00,VWS V14.01,2013-11-07 00:28:00,
2013-11-06 19:33:00,43.0,43.0,29.28,WSW,247,4.0,4.0,100,0.03,,---,0.19,0.00,VWS V14.01,2013-11-07 00:33:00,
2013-11-06 19:38:00,43.0,43.0,29.28,NW,315,3.0,8.0,100,0.04,,---,0.19,0.00,VWS V14.01,2013-11-07 00:38:00,
2013-11-06 19:43:00,43.0,43.0,29.29,NW,315,2.0,4.0,100,0.04,,---,0.19,0.00,VWS V14.01,2013-11-07 00:43:00,
2013-11-06 19:48:00,43.0,43.0,29.29,NW,315,0.0,5.0,100,0.04,,---,0.20,0.00,VWS V14.01,2013-11-07 00:48:00,
2013-11-06 19:53:00,42.0,42.0,29.31,WNW,292,1.0,5.0,100,0.06,,---,0.21,0.00,VWS V14.01,2013-11-07 00:53:00,
2013-11-06 19:58:00,42.0,42.0,29.31,WNW,292,2.0,6.0,100,0.06,,---,0.21,0.00,VWS V14.01,2013-11-07 00:58:00,
2013-11-06 20:03:00,42.0,42.0,29.31,WNW,292,0.0,3.0,100,0.07,,---,0.22,0.00,VWS V14.01,2013-11-07 01:03:00,
2013-11-06 20:08:00,42.0,42.0,29.31,WSW,247,4.0,4.0,100,0.06,,---,0.22,0.00,VWS V14.01,2013-11-07 01:08:00,
2013-11-06 20:13:00,42.0,42.0,29.30,West,270,0.0,8.0,100,0.07,,---,0.23,0.00,VWS V14.01,2013-11-07 01:13:00,
2013-11-06 20:18:00,42.0,42.0,29.30,NNW,337,5.0,8.0,100,0.07,,---,0.24,0.00,VWS V14.01,2013-11-07 01:18:00,
2013-11-06 20:23:00,42.0,42.0,29.29,NNW,337,0.0,2.0,100,0.07,,---,0.24,0.00,VWS V14.01,2013-11-07 01:23:00,
2013-11-06 20:28:00,42.0,42.0,29.29,WNW,292,1.0,6.0,100,0.07,,---,0.25,0.00,VWS V14.01,2013-11-07 01:28:00,
2013-11-06 20:33:00,42.0,42.0,29.30,SW,225,1.0,9.0,100,0.07,,---,0.25,0.00,VWS V14.01,2013-11-07 01:33:00,
2013-11-06 20:38:00,41.0,41.0,29.30,West,270,1.0,6.0,100,0.06,,---,0.25,0.00,VWS V14.01,2013-11-07 01:38:00,
2013-11-06 20:43:00,41.0,41.0,29.31,NW,315,3.0,3.0,100,0.06,,---,0.25,0.00,VWS V14.01,2013-11-07 01:43:00,
2013-11-06 20:48:00,41.0,41.0,29.31,NW,315,2.0,6.0,100,0.06,,---,0.25,0.00,VWS V14.01,2013-11-07 01:48:00,
2013-11-06 20:53:00,41.0,41.0,29.32,NW,315,0.0,6.0,100,0.04,,---,0.25,0.00,VWS V14.01,2013-11-07 01:53:00,
2013-11-06 20:58:00,41.0,41.0,29.32,NW,315,2.0,3.0,100,0.04,,---,0.25,0.00,VWS V14.01,2013-11-07 01:58:00,
2013-11-06 21:03:00,41.0,41.0,29.32,NW,315,1.0,4.0,100,0.03,,---,0.25,0.00,VWS V14.01,2013-11-07 02:03:00,
2013-11-06 21:08:00,41.0,41.0,29.32,SSW,202,2.0,2.0,100,0.03,,---,0.25,0.00,VWS V14.01,2013-11-07 02:08:00,
2013-11-06 21:13:00,41.0,41.0,29.34,NNW,337,1.0,5.0,100,0.02,,---,0.25,0.00,VWS V14.01,2013-11-07 02:13:00,
2013-11-06 21:18:00,41.0,41.0,29.34,NNW,337,2.0,8.0,100,0.01,,---,0.25,0.00,VWS V14.01,2013-11-07 02:18:00,
2013-11-06 21:23:00,41.0,41.0,29.31,NW,315,3.0,8.0,100,0.01,,---,0.25,0.00,VWS V14.01,2013-11-07 02:23:00,
2013-11-06 21:28:00,41.0,41.0,29.31,West,270,0.0,3.0,100,0.01,,---,0.25,0.00,VWS V14.01,2013-11-07 02:28:00,
2013-11-06 21:33:00,41.0,41.0,29.34,NNW,337,0.0,1.0,100,0.00,,---,0.25,0.00,VWS V14.01,2013-11-07 02:33:00,
2013-11-06 21:38:00,41.0,41.0,29.34,WNW,292,5.0,7.0,100,0.00,,---,0.25,0.00,VWS V14.01,2013-11-07 02:38:00,
2013-11-06 21:43:00,41.0,41.0,29.33,SW,225,0.0,0.0,100,0.00,,---,0.25,0.00,VWS V14.01,2013-11-07 02:43:00,
2013-11-06 21:48:00,41.0,41.0,29.33,NW,315,2.0,4.0,100,0.00,,---,0.25,0.00,VWS V14.01,2013-11-07 02:48:00,
2013-11-06 21:53:00,41.0,41.0,29.33,WNW,292,4.0,4.0,100,0.00,,---,0.25,0.00,VWS V14.01,2013-11-07 02:53:00,
2013-11-06 21:58:00,41.0,41.0,29.33,NNW,337,0.0,3.0,100,0.00,,---,0.25,0.00,VWS V14.01,2013-11-07 02:58:00,
2013-11-06 22:03:00,41.0,41.0,29.34,North,360,0.0,4.0,100,0.00,,---,0.25,0.00,VWS V14.01,2013-11-07 03:03:00,
2013-11-06 22:08:00,41.0,41.0,29.34,WSW,247,2.0,5.0,100,0.00,,---,0.25,0.00,VWS V14.01,2013-11-07 03:08:00,
2013-11-06 22:13:00,41.0,41.0,29.35,NW,315,5.0,6.0,100,0.00,,---,0.25,0.00,VWS V14.01,2013-11-07 03:13:00,
2013-11-06 22:18:00,41.0,41.0,29.35,West,270,4.0,5.0,100,0.00,,---,0.25,0.00,VWS V14.01,2013-11-07 03:18:00,
2013-11-06 22:23:00,41.0,41.0,29.34,SE,135,0.0,3.0,100,0.00,,---,0.25,0.00,VWS V14.01,2013-11-07 03:23:00,
2013-11-06 22:28:00,41.0,41.0,29.34,WNW,292,2.0,5.0,100,0.00,,---,0.25,0.00,VWS V14.01,2013-11-07 03:28:00,
2013-11-06 22:33:00,41.0,41.0,29.34,NW,315,3.0,5.0,100,0.00,,---,0.25,0.00,VWS V14.01,2013-11-07 03:33:00,
2013-11-06 22:38:00,41.0,41.0,29.34,WNW,292,1.0,8.0,100,0.00,,---,0.25,0.00,VWS V14.01,2013-11-07 03:38:00,
2013-11-06 22:43:00,41.0,41.0,29.34,NW,315,1.0,1.0,100,0.00,,---,0.25,0.00,VWS V14.01,2013-11-07 03:43:00,
2013-11-06 22:48:00,41.0,41.0,29.34,WNW,292,4.0,10.0,100,0.00,,---,0.25,0.00,VWS V14.01,2013-11-07 03:48:00,
2013-11-06 22:53:00,41.0,41.0,29.35,NW,315,7.0,9.0,100,0.00,,---,0.25,0.00,VWS V14.01,2013-11-07 03:53:00,
2013-11-06 22:58:00,41.0,41.0,29.35,WNW,292,3.0,6.0,100,0.00,,---,0.25,0.00,VWS V14.01,2013-11-07 03:58:00,
2013-11-06 23:03:00,41.0,41.0,29.35,NW,315,4.0,9.0,100,0.00,,---,0.00,0.00,VWS V14.01,2013-11-07 04:03:00,
2013-11-06 23:08:00,41.0,41.0,29.35,WNW,292,3.0,6.0,100,0.00,,---,0.00,0.00,VWS V14.01,2013-11-07 04:08:00,
2013-11-06 23:13:00,41.0,41.0,29.35,WNW,292,3.0,9.0,100,0.00,,---,0.00,0.00,VWS V14.01,2013-11-07 04:13:00,
2013-11-06 23:18:00,41.0,41.0,29.35,North,360,2.0,2.0,100,0.00,,---,0.00,0.00,VWS V14.01,2013-11-07 04:18:00,
2013-11-06 23:23:00,41.0,41.0,29.35,West,270,0.0,3.0,100,0.00,,---,0.00,0.00,VWS V14.01,2013-11-07 04:23:00,
2013-11-06 23:28:00,40.0,40.0,29.35,NNW,337,6.0,6.0,100,0.00,,---,0.00,0.00,VWS V14.01,2013-11-07 04:28:00,
2013-11-06 23:33:00,40.0,40.0,29.35,WNW,292,4.0,12.0,100,0.00,,---,0.00,0.00,VWS V14.01,2013-11-07 04:33:00,
2013-11-06 23:38:00,40.0,40.0,29.35,NW,315,1.0,4.0,100,0.00,,---,0.00,0.00,VWS V14.01,2013-11-07 04:38:00,
2013-11-06 23:43:00,40.0,40.0,29.36,NW,315,1.0,8.0,100,0.00,,---,0.00,0.00,VWS V14.01,2013-11-07 04:43:00,
2013-11-06 23:48:00,40.0,40.0,29.36,NW,315,5.0,6.0,100,0.00,,---,0.00,0.00,VWS V14.01,2013-11-07 04:48:00,
2013-11-06 23:53:00,40.0,40.0,29.35,NW,315,5.0,5.0,100,0.00,,---,0.00,0.00,VWS V14.01,2013-11-07 04:53:00,
2013-11-06 23:58:00,40.0,40.0,29.35,SW,225,0.0,0.0,100,0.00,,---,0.00,0.00,VWS V14.01,2013-11-07 04:58:00,